Location: Bühlhof
(48.7849°N, 8.6361°E)
Time: 10:13:49
(UTC+00:00)

Cosmos 1934 Rocket - Pass Details

Date: 19 January 2026
Orbit: 938 x 998 km, 83.0° (Epoch: 18 February)

Event Time Altitude Azimuth Distance (km) Brightness Sun altitude
Rises 17:13:54 0° 354° (N) 3,636 6.9 -11.5°
Reaches altitude 10° 17:16:32 10° 1° (N) 2,694 6.1 -11.9°
Maximum altitude 17:22:23 44° 73° (ENE) 1,315 4.2 -12.9°
Drops below altitude 10° 17:28:18 10° 145° (SE) 2,716 6.1 -13.8°
Sets 17:30:57 0° 151° (SSE) 3,669 6.9 -14.2°
